Погода в Шымкенте

Погода в Шымкенте : погода сейчас, прогноз погоды и архив. Всё, что Вы хотите узнать о погоде в Шымкенте!

Поиск расширенной информации на нашем сайте:

Другие новости

Новости СМИ2

Главная страница сайта

Новости сайта

03.07.2017

Напоминаем, что на нашем специализированном сайте Метеоцентр.Азия вы можете получить высокодетализированные автоматические прогнозы погоды по пунктам России, СНГ и мира в авиационном формате (включающие направление и скорость ветра, видимость, явления погоды, количество и форму облачности, нижнюю и верхнюю границу облачности).


Погода в Шымкенте - сегодня

Время (UTC), дата Ветер
(°,м/с) 
Видим.   Явления Облачность Т
(°С)
Тd
(°С)
f(%) Тe
(°С)
Pmin
(гПа)
dP
(гПа)
Po
(мм)
O2
(г/м3)
Тmin Tmax R s Состояние
почвы
12 13.08.18 270 (З) 20000 м    ясно 
+33.4 +5.3 17 +33  1003.7  -0.7  704  252           
15 13.08.18 220 (ЮЗ) 20000 м    ясно 
+27.5 +5.5 25 +28  1005.3  0.3  705  257    +35       
18 13.08.18 160 (Ю) н/о    ясно 
+24.8 +4.9 28 +25  1005.6  -0.3  704  259    +35       
21 13.08.18 210 (ЮЗ) н/о    ясно 
+21.6 +4.9 34 +22  1005.4  -0.9  704  262           
00 14.08.18 020 (С) 20000 м    ясно 
+20.3 +8.1 45 +20  1005.9  0.3  704  263           
06 14.08.18 тихо ()   20000 м    ясно 
+32.4 +8.5 23 +33  1004.8  0.4  705  252  +18.5         
09 14.08.18 тихо ()   20000 м    ясно 
+35.4 +6.1 16 +35  1003.1  -1  742  264           
12 14.08.18 290 (З) 20000 м    ясно 
+36.2 +7.2 17 +36  1002.2  -0.7  704  249           
15 14.08.18 330 (СЗ) н/о    ясно 
+28.7 +8.2 28 +29  1004.4  0.6  704  255    +36.7       
18 14.08.18 280 (З) н/о    ясно 
+25.1 +7.9 33 +25  1005.4  0.1  704  258    +36.7       
21 14.08.18 310 (СЗ) н/о    ясно 
+22.4 +8.7 42 +23  1005.5  -0.5  704  261           
00 15.08.18 240 (ЮЗ) 20000 м    ясно 
+20.9 +8.3 44 +21  1006.2  0.4  704  262           
06 15.08.18 220 (ЮЗ) 20000 м    ясно 
+33.9 +5.6 17 +34  1004.7  0.4  705  252  +20.2         
09 15.08.18 230 (ЮЗ) 20000 м    ясно 
+35.2 +5.1 15 +35  1003.9  -0.4  705  251           
12 15.08.18 270 (З) 20000 м    ясно 
+35.9 +3.4 13 +36  1003.4  -0.4  704  250           
15 15.08.18 тихо ()   20000 м    ясно 
+27.4 +4.7 23 +27  1005.8  0.5  705  257    +36.2       
18 15.08.18 030 (СВ) н/о    ясно 
+21.6 +6.2 37 +22  1007.4  0.3  705  262    +36.2       
21 15.08.18 180 (Ю) н/о    ясно 
+22.4 +4.7 32 +22  1006.5  -0.7  705  262           
00 16.08.18 140 (ЮВ) 20000 м    ясно 
+21.1 +4.9 35 +21  1007.4  0.6  705  263           
06 16.08.18 190 (Ю) 20000 м    ясно 
+31.6 +5.5 19 +32  1006.9  0.7  706  254  +20.3         
09 16.08.18 090 (В) 20000 м    ясно 
+34.4 +3.2 14 +34  1006  -0.3  706  252           
15 16.08.18 310 (СЗ) 20000 м    ясно 
+29.4 +5.4 22 +29  1007.2  0.8  706  256    +35.7       
21 16.08.18 250 (З) н/о    ясно 
+21.9 +5.6 35 +22  1008.8  -0.5  706  262           
09 17.08.18 170 (Ю) 20000 м    ясно 
+34.3 +3.8 15 +34  1003  -1.7  704  251           
15 17.08.18 190 (Ю) 20000 м    ясно 
+27.2 +4.7 24 +27  1003.4  0.3  703  257    +35.4       
Время (UTC), дата Ветер
(°,м/с) 
Видим.   Явления Облачность Т
(°С)
Тd
(°С)
f(%) Тe
(°С)
Pmin
(гПа)
dP
(гПа)
Po
(мм)
O2
(г/м3)
Тmin Tmax R s Состояние
почвы

Для получения пояснительной информации подведите курсор к названию столбца.

ПОГОДА в Шымкенте - архив

Всё, что Вы хотите узнать о погоде в Шымкенте - удобно и подробно!

Выберите нужную дату (начиная с 1 января 2015* года) и нажмите кнопку "Найти".
Будут отображены архивные сводки погоды по пункту Шымкент, начиная с указанной даты.


Отображать данные в формате CSV (для использования в таблицах Excel)


Внимание! Наш архив погоды предназначен исключительно для личного некоммерческого использования в познавательных целях. Если Вам необходимы официальные справки о состоянии погоды (для производственных, юридических, коммерческих и т.п. целей), обращайтесь в органы Росгидромета.

*Примечание: данная дата относится к архиву по метеостанциям СССР (Россия, СНГ, Балтия).
Архив по метеостанциям Зарубежной Европы и Азии (кроме Китая) хранится 10 дней, по другим регионам земного шара (Китай, Африка, Америка, Австралия, Океания) - 1 день.

Шымкент - район местоположения метеостанции


Название, широта, долгота, высота метеостанции:
Шымкент (город) 42.3°ш. 69.7°д. 604 м над ур. моря [Казахстан]

Дополнительная информация

В oтличие oт бoльшинства пoгoдных сайтoв мы публикуем пoдрoбную метеoинфoрмацию в детальнoм прoфессиoнальнoм фoрмате.

Характеристики температуры и влажнoсти вoздуха измеряются на высoте 2 м в тени вдали oт зданий и деревьев.
Скoрoсть ветра измеряется на высoте 10 м (на урoвне рoста челoвека скoрoсть ветра ниже в 1.5-2 раза). Если метеoстанция нахoдится в гoрoде или в лесу, тo скoрoсть ветра занижена на 2-4 м/с пo сравнению с oткрытым местoм. Скoрoсть ветра над акватoриями крупных рек и oзёр, а также на вершинах хoлмoв на 2-5 м/с выше, чем в oбычных услoвиях.
Атмoсфернoе давление в разных тoчках местнoсти мoжет значительнo oтличаться oт давления на метеoстанции, в зависимoсти oт услoвий рельефа (при пoдъёме на 10 м давление пoнижается примернo на 1 мм рт.ст.).